Theta_e
317 315 331 333 336 340 345 346 342 347 346 344 343 345 344 346 347 343 347 344 344 336 332 327 321 319 320 321 320 322 322 323 324 323 324 323 322 320 318 315 316 325 339 326 326 321 322 323 323
315 322 331 337 337 339 341 341 346 346 343 343 343 344 344 346 347 347 346 346 344 334 328 322 320 320 323 320 321 322 322 324 324 324 325 325 323 323 321 319 321 325 328 334 333 330 323 323 324
315 319 331 336 336 338 339 346 345 345 344 346 346 342 344 346 347 346 346 342 342 328 322 320 319 322 322 319 321 322 323 324 325 325 326 326 326 326 325 322 322 323 325 328 332 330 328 328 326
324 326 325 327 339 340 342 345 346 345 344 344 345 344 345 346 346 341 330 331 327 322 321 319 319 323 321 319 321 322 325 325 325 326 326 327 327 327 326 323 322 323 328 331 332 333 333 332 333
327 325 322 327 332 339 340 343 344 346 348 346 344 344 344 345 343 340 331 323 321 320 320 319 320 323 320 320 321 323 325 326 326 326 327 328 328 329 327 324 323 324 326 328 329 329 331 332 333
325 322 323 327 328 339 342 343 344 345 346 345 343 344 344 343 343 340 331 321 320 320 320 319 322 322 320 319 322 324 325 325 326 328 330 331 332 330 329 327 323 324 325 325 325 324 324 325 325
322 317 321 323 325 330 342 343 343 344 344 344 342 342 343 343 340 326 324 322 320 320 320 319 323 321 319 319 322 324 326 326 327 331 332 332 333 333 331 331 329 321 322 325 322 323 321 321 322
325 317 324 324 327 340 341 343 343 343 345 343 341 342 342 342 340 334 332 331 323 320 319 320 322 321 319 319 322 325 326 327 328 332 333 333 334 335 334 331 330 329 320 327 328 330 332 332 327
322 316 317 322 334 333 341 343 344 345 343 343 343 342 341 343 341 340 340 335 322 323 320 319 322 321 320 319 322 325 326 328 329 331 333 333 334 335 334 334 331 331 329 329 330 328 328 330 330
319 315 320 319 328 330 336 344 344 343 343 343 342 339 342 342 341 340 340 334 329 323 321 319 322 321 320 319 321 324 326 328 330 332 333 334 335 336 336 334 333 332 331 330 328 327 327 327 330
320 320 320 324 330 336 340 343 344 342 341 340 341 343 343 342 342 341 339 336 335 335 334 332 322 322 325 320 321 323 325 327 329 331 333 335 336 336 336 335 335 334 331 331 329 324 326 326 327
321 321 322 323 331 341 340 343 345 343 339 337 340 342 343 342 342 341 339 337 336 336 338 337 326 338 335 335 334 324 329 332 333 334 337 336 336 337 336 336 336 334 333 331 329 326 326 326 328
319 321 322 322 331 334 340 340 340 342 340 340 342 343 343 343 342 342 339 336 335 336 337 338 336 337 338 337 335 334 334 336 336 338 339 336 336 336 336 338 335 334 333 330 330 327 327 326 326
320 320 320 323 336 337 337 336 340 343 341 342 343 344 343 342 342 342 339 336 336 336 336 338 337 337 337 337 336 335 335 336 336 338 338 337 338 338 338 338 336 334 333 330 330 328 326 329 326
321 320 319 325 333 333 338 339 338 344 342 341 342 343 343 344 344 339 336 336 335 335 336 337 337 337 337 338 337 337 336 336 336 338 338 338 338 339 339 337 336 335 333 331 331 330 328 327 328
319 318 320 320 328 335 337 340 338 344 341 341 342 343 344 343 342 339 337 336 335 335 335 335 335 336 336 337 338 337 337 336 337 338 339 338 339 341 340 337 335 332 331 332 331 331 329 327 328
316 320 321 322 321 333 330 338 338 340 340 341 341 341 342 338 337 337 336 336 335 333 334 334 334 335 336 337 339 338 338 338 338 339 340 340 340 341 339 337 334 332 333 334 334 332 329 328 327
319 320 319 321 321 327 325 334 337 338 339 339 340 341 341 339 338 337 337 335 334 333 333 334 336 336 336 338 340 340 339 339 338 341 341 341 340 337 336 334 334 334 332 332 334 331 329 328 328
320 320 320 319 320 321 320 333 338 338 338 338 339 339 340 339 338 337 336 334 333 334 335 335 336 337 337 337 336 335 339 336 340 339 338 337 337 336 335 335 335 336 334 335 331 331 329 328 328
319 319 318 318 319 320 321 332 338 337 337 338 338 339 340 340 339 337 334 334 335 336 335 335 338 339 339 339 340 333 330 335 340 340 340 336 337 336 336 338 336 333 334 334 330 329 330 329 329
318 318 318 318 318 319 321 325 339 338 338 338 338 339 340 340 340 340 335 336 337 337 336 338 342 342 343 343 343 341 338 340 341 341 339 336 335 334 335 334 333 331 330 332 333 331 331 332 331
318 318 319 320 321 320 320 319 330 339 339 338 338 339 340 341 341 343 341 338 341 342 340 340 342 344 344 345 345 344 344 344 342 340 340 339 336 336 337 333 333 330 326 326 329 331 332 332 331
319 321 318 319 319 321 320 319 318 328 336 338 339 340 340 341 342 343 344 342 343 343 343 342 343 346 345 346 346 343 344 345 344 341 339 340 338 338 338 335 336 335 334 331 328 327 328 329 330
322 321 317 316 316 318 319 320 320 329 333 337 338 340 339 340 342 343 344 343 344 345 344 345 346 345 346 344 337 342 342 343 342 341 340 338 339 340 338 335 335 334 335 334 333 331 331 331 330
320 318 318 318 319 320 319 320 321 322 325 332 336 339 339 338 341 344 344 345 345 345 345 344 345 346 345 340 338 339 342 344 341 338 336 333 338 337 336 333 333 331 332 334 335 333 334 332 330
320 318 317 320 319 321 321 323 323 329 328 327 332 336 339 340 342 343 344 345 345 345 345 344 346 344 344 341 340 340 344 345 343 338 329 328 329 334 336 335 336 329 328 331 333 332 331 330 330
324 320 319 319 321 321 322 326 329 329 327 328 330 333 338 340 341 342 344 345 345 345 344 345 347 345 342 343 345 347 347 343 341 339 335 331 328 334 334 333 334 328 330 332 330 329 329 327 326
324 322 324 318 322 322 323 333 330 331 329 329 330 333 336 339 342 343 344 345 346 345 345 347 346 341 340 340 344 345 343 339 339 338 332 330 336 334 332 331 329 330 329 328 327 325 324 325 325
323 322 322 319 320 322 324 331 326 327 327 328 329 335 338 342 343 345 345 346 345 346 346 346 337 332 332 336 336 338 333 337 338 337 332 333 334 332 330 329 329 326 325 325 324 325 326 325 324
322 322 321 323 324 325 323 327 327 326 327 330 333 338 340 342 343 345 346 346 346 347 347 342 332 334 332 331 334 334 328 332 337 337 333 332 331 330 329 328 327 326 324 324 324 324 323 322 321
Wind_Speed
1 2 2 1 3 3 2 2 1 4 1 2 13 3 8 5 1 2 15 22 18 20 17 14 12 11 14 15 14 12 12 12 12 13 13 13 13 13 13 13 12 12 13 13 11 8 7 5 6
2 5 2 2 4 4 3 3 1 1 9 18 13 11 6 3 3 15 23 17 18 19 17 15 13 14 15 15 14 12 12 12 13 13 13 13 14 14 14 14 13 12 12 11 10 8 8 6 7
3 3 1 3 3 4 3 1 8 14 17 5 6 10 4 4 14 24 17 16 23 19 17 14 14 15 15 15 14 12 12 12 12 12 13 13 14 14 14 13 13 13 12 13 13 13 13 12 10
4 3 2 3 2 2 4 8 10 11 3 4 16 6 9 6 19 15 19 20 20 19 17 15 15 15 15 14 13 12 12 12 12 13 13 14 14 14 14 13 13 13 13 12 13 13 12 11 10
4 1 3 1 1 2 6 12 15 6 2 8 6 4 9 14 15 16 17 19 19 18 16 15 15 15 15 14 13 12 11 11 12 13 14 15 15 15 14 13 12 11 11 10 10 9 8 7 6
2 2 3 2 4 5 13 21 10 4 8 11 13 10 6 14 15 13 15 16 15 14 15 15 16 15 14 13 12 11 11 12 12 13 14 16 16 16 16 15 13 10 10 10 9 6 6 6 6
4 3 4 3 4 6 6 20 10 8 10 7 19 4 11 22 16 18 19 16 15 14 13 14 15 15 14 13 12 11 10 11 11 12 13 14 15 17 18 18 15 12 9 11 12 10 9 8 9
2 4 1 4 2 1 13 14 15 13 2 19 19 7 9 26 22 18 17 14 14 13 11 13 14 14 13 12 11 10 10 10 9 10 10 11 13 15 16 15 16 15 10 11 13 11 9 9 8
3 3 2 3 6 5 19 7 17 7 20 8 10 13 27 28 25 21 18 15 17 13 12 12 13 13 13 12 10 10 9 8 7 6 8 8 9 12 11 11 11 13 12 7 7 7 5 4 6
4 3 6 4 4 7 15 20 21 9 17 3 11 19 28 29 27 24 21 19 17 16 13 13 13 11 11 10 8 7 7 6 5 5 5 6 8 7 7 6 8 9 10 9 4 2 3 3 1
5 5 5 7 3 14 17 16 8 21 4 24 32 29 30 31 29 25 23 18 12 16 14 11 13 11 8 8 6 5 5 4 3 2 3 4 5 6 6 5 5 4 6 7 8 5 1 2 1
1 9 7 3 21 23 11 18 9 13 14 34 35 31 33 33 31 28 24 20 15 15 13 11 14 13 10 9 5 6 6 5 4 5 2 1 3 2 3 4 5 5 7 8 7 5 3 5 6
5 4 9 19 17 35 23 10 10 12 22 32 34 32 33 33 29 26 22 20 18 17 15 13 13 11 10 8 6 7 7 4 2 2 1 2 4 5 4 6 4 2 5 6 7 5 3 1 3
4 7 12 5 17 26 16 8 7 12 27 33 36 33 30 31 29 27 28 25 21 17 18 17 12 10 10 9 8 5 5 4 2 2 2 3 5 7 9 9 6 4 5 4 4 5 4 5 4
6 7 6 5 15 4 19 1 5 29 32 35 35 34 33 27 23 28 26 25 20 18 17 18 13 12 11 11 9 6 7 8 5 2 4 6 8 10 10 10 7 4 7 4 3 5 8 10 8
5 5 4 2 9 11 9 12 5 32 34 30 34 33 32 28 30 30 25 24 23 20 19 16 14 14 12 11 11 10 8 8 7 6 7 8 9 9 11 9 6 6 5 6 8 7 6 8 9
6 1 2 2 9 6 3 2 8 25 26 27 33 35 31 29 31 31 28 26 25 22 21 18 16 16 14 14 15 14 12 12 11 9 9 10 10 12 10 8 8 9 9 11 10 9 8 7 9
3 2 4 4 1 4 5 8 11 27 25 28 31 35 34 34 36 32 31 30 26 24 21 18 15 16 15 16 18 18 18 15 13 12 10 12 11 10 10 10 13 14 14 14 12 10 10 10 9
2 2 4 5 7 8 10 7 16 27 23 22 25 29 35 38 37 34 34 31 30 27 24 22 22 19 20 21 24 27 24 19 14 10 8 7 10 11 13 14 16 17 15 14 12 11 12 11 13
3 3 6 8 3 3 3 10 17 21 29 35 33 30 38 39 38 35 38 35 32 30 28 25 23 23 23 21 21 22 20 18 14 12 13 11 12 15 15 15 16 16 15 13 12 11 12 12 12
3 4 4 8 6 2 4 4 9 16 13 25 26 37 36 42 41 36 39 38 34 32 31 31 25 23 21 21 17 21 18 17 19 17 14 13 12 10 12 14 14 15 13 13 14 16 15 15 16
5 8 7 5 2 4 4 4 7 17 21 12 25 32 35 36 42 38 37 39 34 30 32 31 28 22 19 17 16 19 19 18 18 16 17 15 14 11 12 11 11 9 8 10 10 13 17 18 20
8 3 7 5 5 1 2 3 6 9 15 19 23 36 35 40 42 42 38 39 33 28 29 31 27 21 16 15 14 14 18 17 15 14 13 16 16 16 16 16 15 13 12 8 8 11 14 17 20
7 2 4 5 3 1 7 6 6 6 23 25 26 33 36 41 40 39 40 39 33 30 29 26 26 17 15 15 16 16 15 13 12 13 13 17 19 19 19 18 19 18 18 12 12 14 16 17 21
4 5 3 4 3 6 1 5 8 4 9 21 26 39 35 39 40 37 42 39 35 31 26 21 19 23 20 18 15 15 14 14 12 14 14 16 14 20 21 21 21 19 19 19 17 18 21 23 24
3 6 5 3 3 4 3 5 5 4 11 20 29 38 37 33 38 39 41 41 37 32 25 23 23 21 20 18 16 13 14 14 16 17 21 27 27 24 24 21 18 18 19 21 21 23 24 25 26
2 3 5 3 1 2 3 7 8 4 6 10 6 24 31 34 38 38 40 40 36 32 25 23 22 19 18 15 13 14 14 15 18 17 20 23 20 26 27 24 18 21 20 20 22 23 22 21 22
6 3 1 2 3 4 5 4 5 2 3 6 7 6 18 29 32 35 36 35 35 29 26 23 20 16 15 10 9 9 10 11 13 19 13 13 15 20 17 15 15 14 13 15 17 20 22 21 20
5 3 3 3 5 5 4 6 6 7 9 10 10 14 19 27 30 29 29 32 27 30 26 24 18 10 11 7 4 3 7 13 13 13 16 15 16 10 11 9 9 14 15 17 18 18 18 19 20
5 6 7 4 5 4 4 6 3 4 8 16 14 23 23 24 25 23 25 27 27 28 28 26 13 11 8 9 8 11 12 7 9 9 6 3 3 7 6 11 10 12 13 14 15 14 15 15 15
Wind_Direction
76 156 89 117 39 71 54 284 214 152 265 334 153 144 131 23 45 184 148 165 170 169 163 163 160 150 139 130 123 115 105 96 93 92 89 86 81 74 69 68 69 67 65 66 73 93 125 148 137
182 162 186 121 80 54 307 276 64 92 127 106 77 109 52 72 79 137 149 160 174 171 162 161 156 146 138 132 128 119 103 96 96 94 90 83 78 70 65 64 63 72 79 85 83 85 102 117 132
175 171 188 99 108 157 177 88 130 139 148 178 118 77 90 107 127 139 156 156 169 165 157 156 153 146 141 135 128 114 106 106 105 99 89 79 72 65 62 62 67 73 76 80 83 85 93 101 111
148 184 99 83 213 261 123 155 162 148 138 64 111 67 84 98 132 143 147 153 164 159 155 156 153 148 143 136 126 118 111 112 107 95 87 80 72 65 60 61 66 75 84 84 86 90 99 100 106
157 133 61 18 219 150 125 170 159 152 182 136 86 101 102 150 141 141 149 160 162 156 157 161 155 150 145 141 131 121 121 118 111 101 91 82 74 65 63 62 65 76 88 86 80 82 91 101 109
134 96 52 218 249 151 155 169 155 154 147 118 104 100 123 163 145 144 146 152 161 158 160 162 155 151 149 143 132 129 128 124 115 104 95 85 77 70 67 64 62 73 84 81 69 59 63 71 74
139 98 197 246 275 158 164 168 136 160 137 127 130 83 145 159 135 134 144 150 159 162 168 164 159 155 153 149 142 136 132 128 120 108 102 90 78 72 68 62 55 58 74 77 74 74 76 69 85
195 87 245 240 218 184 156 154 163 153 160 145 140 151 178 162 152 147 147 156 160 163 171 168 166 161 157 154 149 145 141 139 131 114 98 93 80 71 67 63 58 57 67 87 78 64 63 65 90
183 58 263 253 135 172 163 116 161 176 143 153 187 161 160 161 162 160 163 167 168 168 166 170 173 164 163 162 158 154 149 144 134 114 101 93 81 66 63 59 60 58 65 83 83 66 45 22 66
134 136 221 212 188 182 162 148 164 144 162 188 163 149 164 169 168 171 173 168 158 152 158 168 173 167 165 164 161 156 150 145 136 119 100 92 79 67 44 49 44 42 43 47 41 42 16 7 305
181 202 194 246 168 151 163 160 169 146 191 164 155 160 173 177 178 183 182 176 148 147 152 154 171 159 151 151 153 165 155 157 165 142 112 110 86 68 43 11 11 13 23 28 19 4 340 20 286
313 251 264 252 182 161 165 158 144 180 179 170 160 168 173 182 186 191 190 187 170 173 164 156 156 151 145 155 150 163 165 148 158 143 94 93 59 24 41 349 327 343 338 359 9 352 54 91 83
197 250 323 309 210 176 172 175 149 210 166 169 163 170 179 188 192 201 201 194 186 186 183 177 172 177 174 174 173 168 161 147 163 177 338 324 354 339 313 317 324 319 337 346 10 331 276 96 113
276 276 299 263 148 156 159 160 149 166 163 169 171 176 186 192 202 203 207 206 201 198 195 190 194 189 199 197 191 188 190 189 199 253 291 294 319 306 310 310 304 319 333 342 5 351 276 312 246
292 350 350 134 145 138 131 350 202 163 167 170 178 182 186 196 201 209 208 211 209 208 207 205 209 211 212 201 198 216 216 221 227 319 297 293 302 288 294 310 297 338 329 325 334 307 273 288 296
31 44 352 325 131 178 145 208 186 172 169 175 180 185 194 206 208 206 208 212 212 211 217 218 223 227 225 223 219 229 240 238 237 260 281 275 279 286 301 313 301 304 290 298 279 294 260 267 261
9 261 282 39 198 147 94 226 184 179 176 183 188 191 197 194 199 204 209 215 216 220 222 224 231 235 232 227 227 232 246 262 258 255 272 271 266 282 300 310 306 294 294 286 279 267 256 249 246
219 9 337 282 355 175 166 225 180 183 190 195 196 197 202 201 204 207 212 213 217 225 225 233 230 233 232 231 223 230 244 254 248 253 284 281 285 286 291 278 283 286 283 284 277 255 242 247 255
128 204 261 256 172 189 202 187 184 186 198 209 204 205 207 210 210 209 211 214 215 221 226 227 223 222 223 225 231 240 246 247 241 244 247 270 251 252 279 273 278 283 282 283 273 250 248 251 265
198 271 290 290 311 148 177 212 192 186 205 205 200 209 209 213 216 214 208 212 220 224 217 217 228 230 230 234 239 240 245 243 240 240 250 261 265 265 280 277 284 284 280 274 264 258 262 266 266
215 212 230 226 328 312 98 354 160 216 229 216 211 217 214 211 212 213 212 214 218 223 223 226 232 234 237 239 237 235 235 242 240 238 253 265 274 271 280 281 283 287 280 274 262 268 273 272 268
275 201 232 261 63 263 137 275 222 203 218 215 218 222 221 216 216 214 215 216 218 224 228 233 234 236 239 246 244 239 243 255 258 256 266 263 267 270 280 277 282 288 276 271 267 272 273 274 279
232 245 215 233 210 88 298 78 262 183 217 226 220 221 220 218 218 213 216 217 222 223 227 229 233 240 244 243 251 258 253 258 253 259 266 264 268 270 272 269 271 284 286 279 279 284 288 285 285
259 306 61 54 111 0 252 156 274 185 208 220 224 222 217 215 219 217 215 213 219 217 222 222 222 231 234 238 242 245 252 263 258 266 278 293 283 276 278 275 277 283 288 283 289 289 289 291 289
90 64 344 338 2 227 259 119 231 262 232 221 215 222 212 216 214 213 212 209 209 208 202 207 218 226 227 230 238 252 259 253 247 237 257 290 286 284 280 275 280 287 289 292 292 293 288 290 292
185 154 152 228 228 251 102 242 252 232 301 237 225 221 210 205 211 210 210 203 204 210 207 210 224 228 227 232 236 237 244 244 235 239 234 255 273 281 282 278 286 298 294 282 283 287 291 296 297
288 209 190 150 45 8 260 275 311 293 356 56 210 200 198 200 205 212 210 207 206 210 213 215 223 226 227 228 231 232 237 254 244 248 256 268 243 267 275 278 283 305 297 299 300 302 303 300 299
174 197 308 13 213 243 274 261 229 273 1 81 59 109 177 192 197 208 210 206 210 207 204 210 218 223 222 216 216 228 244 253 260 257 260 248 267 271 280 293 296 304 312 314 312 309 304 301 300
16 350 355 152 162 189 239 258 217 217 184 142 135 145 167 175 187 194 196 199 200 198 199 210 203 209 249 210 222 243 294 273 263 262 259 260 263 260 274 290 300 311 313 308 307 304 299 296 300
188 228 179 162 249 199 172 266 337 225 153 127 128 150 166 171 178 180 186 192 195 198 201 197 223 265 267 242 242 292 322 268 268 292 289 176 213 257 290 317 321 323 322 319 316 309 302 305 303